Location: Bard
(39.9279°N, 78.6592°W)
Time: 09:23:43
(UTC+00:00)

ARIANE 6 FM1 Upper Stage - Pass Details

Date: 17 December 2025
Orbit: 522 x 610 km, 62.0° (Epoch: 14 January)

Event Time Altitude Azimuth Distance (km) Brightness Sun altitude
Exits shadow 11:21:33 10° 244° (WSW) 1,783 4.8 -12.8°
Maximum altitude 11:25:15 36° 312° (NW) 857 3.1 -12.1°
Drops below altitude 10° 11:28:57 10° 20° (NNE) 1,772 5.2 -11.5°
Sets 11:31:16 0° 29° (NNE) 2,659 6.2 -11.1°
